CST,Max TemperatureF,Mean TemperatureF,Min TemperatureF,Max Dew PointF,MeanDew PointF,Min DewpointF,Max Humidity, Mean Humidity, Min Humidity, Max Sea Level PressureIn, Mean Sea Level PressureIn, Min Sea Level PressureIn, Max VisibilityMiles, Mean VisibilityMiles, Min VisibilityMiles, Max Wind SpeedMPH, Mean Wind SpeedMPH, Max Gust SpeedMPH,PrecipitationIn, CloudCover, Events, WindDirDegrees
2012-12-1,76,60,44,52,45,42,93,65,36,30.34,30.28,30.24,10,6,0,10,4,15,0.00,2,Fog,94
2012-12-2,78,61,43,55,48,41,93,66,39,30.36,30.29,30.24,10,10,9,10,2,13,0.00,1,,150
2012-12-3,79,62,44,55,48,43,93,65,37,30.31,30.25,30.19,10,8,0,13,4,17,0.00,2,Fog,151
2012-12-4,80,64,47,60,54,46,93,69,45,30.32,30.24,30.19,10,10,9,12,3,16,T,5,Rain,173
2012-12-5,79,66,53,59,54,49,97,66,35,30.22,30.15,30.08,10,7,0,10,3,17,0.00,4,Fog,48
2012-12-6,77,63,49,55,51,46,96,69,41,30.11,30.06,29.99,10,8,0,13,6,17,0.00,1,Fog,83
2012-12-7,71,63,55,56,55,53,93,75,57,30.07,30.01,29.96,10,10,10,14,6,17,0.00,7,,114
2012-12-8,72,64,56,61,57,54,97,83,68,30.04,30.00,29.96,10,5,0,9,4,12,0.01,6,Fog-Rain,110
2012-12-9,77,68,58,62,58,54,97,73,49,30.09,30.02,29.93,10,7,0,14,6,20,0.00,5,Fog,173
2012-12-10,76,63,50,64,60,44,93,83,73,29.94,29.83,29.73,10,9,0,37,9,55,0.87,7,Fog-Rain-Thunderstorm,223
2012-12-11,50,46,41,45,36,32,83,72,61,30.20,30.07,29.94,10,10,10,13,8,18,0.00,4,,335
2012-12-12,57,47,37,38,34,31,76,61,46,30.27,30.20,30.16,10,10,10,10,6,13,0.00,1,,352
2012-12-13,63,50,36,40,37,33,92,68,43,30.36,30.31,30.26,10,10,10,12,5,14,0.00,0,,23
2012-12-14,64,49,33,44,40,33,92,68,43,30.37,30.28,30.17,10,9,3,13,3,20,0.00,1,,106
2012-12-15,69,59,48,54,50,44,86,70,53,30.22,30.11,30.03,10,10,10,12,4,15,0.00,6,,135
2012-12-16,71,63,55,64,57,52,93,83,73,30.03,29.93,29.85,10,8,1,24,7,31,1.67,8,Rain-Thunderstorm,98
2012-12-17,65,61,56,61,57,54,93,89,84,29.88,29.81,29.74,10,9,2,14,5,18,0.61,6,Rain,193
2012-12-18,66,54,42,54,41,35,93,64,34,30.04,29.98,29.83,10,10,10,10,3,13,0.00,0,,266
2012-12-19,75,56,36,48,41,34,92,62,31,30.12,30.05,29.99,10,10,10,13,4,17,0.00,0,,115
2012-12-20,70,57,43,66,50,26,90,65,40,30.11,29.88,29.76,10,8,0,38,14,47,0.78,6,Fog-Rain-Thunderstorm,217
2012-12-21,53,45,36,24,17,12,53,37,21,30.32,30.23,30.12,10,10,10,25,15,33,0.00,0,,294
2012-12-22,59,44,28,25,19,14,78,49,19,30.41,30.32,30.25,10,10,10,10,5,15,0.00,0,,279
2012-12-23,60,44,28,44,33,25,92,62,32,30.26,30.17,30.04,10,10,10,10,3,14,T,4,,167
2012-12-24,73,59,45,63,54,45,93,71,49,30.01,29.91,29.85,10,8,1,20,7,24,0.40,5,Rain,227
2012-12-25,67,56,44,63,54,43,93,90,86,29.95,29.80,29.54,10,5,0,30,9,44,1.72,7,Fog-Rain-Thunderstorm,93
2012-12-26,63,50,37,54,35,29,84,73,62,30.14,29.87,29.56,10,10,10,28,15,38,0.00,7,,268
2012-12-27,47,40,33,32,30,28,89,71,53,30.21,30.14,30.11,10,10,10,15,4,18,0.00,4,,319
2012-12-28,58,44,30,45,38,29,93,66,39,30.11,29.95,29.80,10,7,2,18,6,22,0.59,6,Rain,81
2012-12-29,49,41,33,46,35,24,93,75,57,30.39,30.09,29.81,10,9,2,22,14,30,T,7,Rain,300
2012-12-30,51,39,26,30,25,23,84,60,36,30.52,30.43,30.39,10,10,8,13,4,16,0.00,0,,321
2012-12-31,59,45,30,43,36,27,85,66,47,30.41,30.29,30.12,10,10,10,13,3,16,0.00,5,,111